Погода в Рочегде

Россия / Архангельская область     62°40′13″N   43°24′09″E
темп.,
°C
ветер,
м/с
пор.,
м/с
влажн.,
%
обл.,
%
осадки,
мм/ч
давл.,
гПа
погр.,
м
22 апреля, чт
чт2200:00+3ююв51296100 0.4 1010765
03:00+3ююв51296100 1.1 1009699
06:00+2ююв41197100 0.8 1008720
09:00+3ю41095100 0.9 1008714
12:00+6ю41075100 0.3 10081281
15:00+6ю4108694 0.5 1009988
18:00+6ююз61488100 1.5 10091645
21:00+4юз4888100 2.9 1011824
23 апреля, пт
пт2300:00+4юз4988100 0.1 1012916
03:00+4ююз269598 0.1 1014296
06:00+3ю259414 0.0 1015161
09:00+8ююв35715 0.0 1016536
12:00+13ююв47586 0.0 10151430
15:00+15ююв475086 0.1 10151949
18:00+13ююв5106087 0.5 1014919
21:00+10ююв41276100 1.0 1015598
24 апреля, сб
сб2400:00+9юв4128196 0.2 1014521
03:00+8юв4128495 0.2 1015392
06:00+8юв4118584 0.0 1015463
09:00+10юв4127682 0.0 1014578
12:00+14юв6105251 0.0 10131684
15:00+15вюв694419 0.0 10122218
18:00+12юв5115426 0.1 10111392
21:00+10вюв5116089 0.1 1011830
25 апреля, вс
вс2500:00+7вюв4127098 0.0 1010645
03:00+6в41177100 0.0 1009543
06:00+6в41075100 0.0 1007660
09:00+5в41093100 0.3 10061025
12:00+6в41092100 0.3 10051012
15:00+8в4972100 0.3 10041061
18:00+6в3787100 0.2 1004980
21:00+5в3792100 0.4 1003955
26 апреля, пн
пн2600:00+5всв2691100 0.1 1003713
03:00+5в2590100 0.3 1002601
06:00+4всв2496100 0.6 1001683
09:00+5св2395100 0.8 1001679
12:00+5св1292100 0.3 1002748
15:00+5ссв1293100 0.9 1002761
18:00+4з1196100 0.4 100263
21:00+4з1397100 0.6 1002108